SCP
0 0 0 0 0 0 0 0 0 0 0 0 0 0 0 0 0 0 0 0 0 0 0 0 0 0 0 0 0 0 0 0 0 0 0 0 0 0
0 0 0 0 0 0 0 0 0 0 0 0 0 0 0 0 0 0 0 0 0 0 0 0 0 0 0 0 0 0 0 0 0 0 0 0 0 0
0 0 0 0 0 0 0 0 0 0 0 0 0 0 0 0 0 0 0 0 0 0 0 0 0 0 0 0 0 0 0 0 0 0 0 0 0 0
0 0 0 0 0 0 0 0 0 0 0 0 0 0 0 0 0 0 0 0 0 0 0 0 0 0 0 0 0 0 0 0 0 0 0 0 0 0
0 0 0 0 0 0 0 0 0 0 0 0 0 0 0 0 0 0 0 0 0 0 0 0 0 0 0 0 0 0 0 0 0 0 0 0 0 0
0 0 0 0 0 0 0 0 0 0 0 0 0 0 0 0 0 0 0 0 0 0 0 0 0 0 0 0 0 0 0 0 0 0 0 0 0 0
0 0 0 0 0 0 0 0 0 0 0 0 0 0 0 0 0 0 0 0 0 0 0 0 0 0 0 0 0 0 0 0 0 0 0 0 0 0
0 0 0 0 0 0 0 0 0 0 0 0 0 0 0 0 0 0 0 0 0 0 0 0 0 0 0 0 0 0 0 0 0 0 0 0 0 0
0 0 0 0 0 0 0 0 0 0 0 0 0 0 0 0 0 0 0 0 0 0 0 0 0 0 0 0 0 0 0 0 0 0 0 0 0 0
0 0 0 0 0 0 0 0 0 0 0 0 0 0 0 0 0 0 0 0 0 0 0 0 0 0 0 0 0 0 0 0 0 0 0 0 0 0
0 0 0 0 0 0 0 0 0 0 0 0 0 0 0 0 0 0 0 0 0 0 0 0 0 0 0 0 0 0 0 0 0 0 0 0 0 0
0 0 0 0 0 0 0 0 0 0 0 0 0 0 0 0 0 0 0 0 0 0 0 0 0 0 0 0 -0 0 0 0 0 0 -0 -0 -0 0
0 0 0 0 0 0 0 0 0 0 0 0 0 0 0 0 0 0 0 0 0 0 0 0 0 0 0 0 0 0 0 0 0 0 -0 -0 -0 -0
0 0 0 0 0 0 0 0 0 0 0 0 0 0 0 0 0 0 0 0 0 0 0 0 0 0 0 0 0 0 0 0 0 0 0 0 -0 -0
0 0 0 0 0 0 0 0 0 0 0 0 0 0 0 0 0 0 0 0 0 0 0 0 0 0 0 0 0 0 0 0 0 0 0 0 0 0
0 0 0 0 0 0 0 0 0 0 0 0 0 0 0 0 0 0 0 0 0 0 0 0 0 0 0 0 0 0 0 0 0 0 0 0 0 0
0 0 0 0 0 0 0 0 0 0 0 0 0 0 0 0 0 0 0 0 0 0 0 0 0 0 0 0 0 0 0 0 0 0 0 0 0 0
0 0 0 0 0 0 0 0 0 0 0 0 0 0 0 0 0 0 0 0 0 0 0 0 0 0 0 0 0 0 0 0 0 0 0 0 0 0
0 0 0 0 0 0 0 0 0 0 0 0 0 0 0 0 0 0 0 0 0 0 0 0 0 0 0 0 0 0 0 0 0 0 0 0 0 0
0 0 0 0 0 0 0 0 0 0 0 0 0 0 0 0 0 0 0 0 0 0 0 0 0 0 0 0 0 0 0 0 0 0 0 0 0 0
0 0 0 0 0 0 0 0 0 0 0 0 0 0 0 0 0 0 0 0 0 0 0 0 0 0 0 0 0 0 0 0 0 0 0 0 0 0
0 0 0 0 0 0 0 0 0 0 0 0 0 0 0 0 0 0 0 0 0 0 0 0 0 0 0 0 0 0 0 0 0 0 0 0 0 0
0 0 0 0 0 0 0 0 0 0 0 0 0 0 0 0 0 0 0 0 0 0 0 0 0 0 0 0 0 0 0 0 0 0 0 0 0 0
Wind_Speed_500mb
25 25 23 23 27 31 35 42 49 48 59 43 43 71 72 76 74 75 74 73 75 75 74 76 77 78 79 80 80 78 75 77 79 78 82 85 89 89
15 17 20 23 26 30 34 38 43 51 51 66 75 80 83 86 84 81 80 79 76 75 75 75 74 75 71 69 71 74 76 78 80 81 83 86 91 91
14 18 21 25 30 34 38 42 45 52 63 78 78 82 84 84 83 81 80 77 78 78 77 73 69 68 63 62 62 64 65 72 75 82 92 96 96 87
17 21 26 31 35 40 44 48 53 55 62 75 78 78 80 81 82 81 80 79 81 82 83 71 66 65 58 74 69 64 65 70 79 83 87 91 96 96
23 26 30 36 40 44 46 48 51 53 56 64 74 75 76 79 85 84 87 88 87 84 75 84 78 81 68 63 59 58 60 61 64 71 79 85 89 93
24 30 34 36 38 39 40 43 45 50 54 60 66 72 76 79 80 91 99 91 94 92 76 78 83 74 53 53 57 60 61 67 72 78 82 82 83 87
28 30 30 32 32 34 37 42 47 51 55 59 64 70 76 81 82 85 89 95 93 74 76 91 84 66 65 59 61 64 64 69 75 76 77 74 69 73
25 26 25 25 28 32 37 41 44 49 52 54 57 65 69 71 77 78 82 85 87 84 96 89 73 68 66 60 54 59 69 60 62 73 79 60 48 53
20 18 20 26 31 37 42 47 49 50 50 48 58 59 65 65 71 73 77 80 78 80 71 81 69 74 59 40 59 57 52 44 53 63 69 41 21 37
15 19 24 30 37 44 48 49 51 52 53 55 54 54 52 61 58 58 66 69 71 67 59 64 73 69 45 38 57 45 44 42 47 51 59 58 43 60
17 22 28 33 38 43 48 51 54 55 53 50 48 48 54 49 47 52 60 63 72 71 48 54 64 58 41 47 53 41 39 41 47 52 57 60 50 42
22 29 37 41 44 45 47 52 58 60 60 60 59 57 51 49 42 39 49 54 56 62 49 60 49 51 39 50 48 51 38 38 42 47 50 45 39 37
27 33 38 42 46 46 48 51 56 60 60 59 61 55 51 49 47 42 44 44 50 49 36 40 44 47 42 54 43 49 46 44 46 44 39 30 28 34
29 34 37 41 45 48 48 49 54 57 59 60 57 55 52 51 48 45 48 39 36 37 31 28 38 40 42 43 41 44 31 36 41 46 42 35 33 36
33 37 40 43 44 46 51 52 51 52 55 57 58 58 52 50 48 47 39 37 32 32 28 27 33 35 33 34 36 38 37 26 35 35 34 32 31 30
38 41 46 49 52 52 53 53 52 49 50 54 58 59 56 53 48 42 42 34 30 26 26 28 32 34 30 34 34 32 32 25 30 30 31 28 25 25
44 47 48 50 52 52 52 53 54 53 50 49 51 54 57 56 52 44 40 35 32 30 29 29 33 33 33 32 29 28 30 30 30 27 25 26 24 22
48 50 50 52 52 52 54 56 56 55 51 50 50 51 55 57 57 49 42 40 39 36 36 34 31 30 30 30 30 29 31 31 31 27 25 24 24 21
51 52 53 53 52 51 52 54 58 56 55 51 50 51 51 53 51 50 43 41 39 38 37 35 31 31 30 30 32 31 30 30 27 27 27 23 19 18
52 52 52 52 51 51 52 53 54 55 53 51 49 50 50 50 49 46 42 42 41 39 36 32 33 31 30 31 32 34 33 30 28 26 24 21 20 18
51 51 52 51 50 50 51 53 54 54 54 53 50 50 48 48 45 42 41 39 38 36 36 32 32 32 32 34 35 35 34 34 28 24 23 20 18 16
53 52 50 50 50 50 50 51 52 49 48 48 47 47 46 44 44 42 40 41 39 40 39 34 34 33 33 36 38 38 36 31 28 26 23 19 16 10
53 53 50 49 50 51 51 51 50 48 47 47 46 45 44 43 42 41 41 41 42 42 42 38 37 40 41 37 38 39 35 31 29 27 24 22 20 20
Wind_Direction_500mb
273 282 293 303 310 313 318 325 327 323 320 333 320 317 324 326 326 324 323 321 319 317 314 310 308 303 300 296 295 296 294 292 288 287 286 287 286 284
280 293 306 311 317 320 322 323 322 319 312 314 323 328 330 331 333 332 331 329 329 327 325 324 319 315 310 300 294 295 293 291 292 291 287 285 285 285
302 312 317 321 324 324 325 325 324 321 319 321 327 329 330 332 333 333 333 333 333 335 330 327 323 324 318 317 314 302 297 296 294 291 288 287 285 286
308 316 322 325 327 329 329 329 330 331 328 326 329 331 334 334 333 333 335 337 335 336 336 331 333 326 324 320 315 311 306 296 293 293 293 291 290 290
318 320 328 331 332 334 336 335 332 332 331 329 330 333 334 336 335 335 336 336 338 339 337 339 333 331 330 323 322 322 317 317 311 302 298 296 292 290
324 328 330 332 333 333 334 333 334 333 334 332 333 334 337 337 335 335 333 336 335 339 334 334 336 338 338 335 327 321 324 318 318 315 312 308 301 294
325 327 328 329 333 336 337 339 338 335 336 336 335 334 336 335 337 335 332 332 333 334 329 334 338 343 345 339 332 332 329 327 329 327 322 314 311 307
317 322 328 333 337 336 337 337 336 336 337 335 333 332 332 334 333 332 330 326 326 331 332 331 343 344 346 340 340 338 335 343 346 341 335 326 327 322
308 318 327 329 332 333 333 335 337 337 334 329 328 331 329 330 328 326 318 319 320 327 335 330 344 341 347 348 349 351 356 359 354 358 360 354 335 341
307 318 324 327 331 330 330 333 334 334 333 329 325 325 323 320 322 312 316 323 326 334 338 328 346 342 356 1 355 360 6 1 2 20 24 27 42 58
314 321 325 328 328 329 329 330 332 332 329 327 324 318 317 318 318 318 327 328 328 335 339 334 348 347 4 5 358 1 2 8 12 17 18 20 22 22
311 322 329 333 334 335 334 334 334 333 330 328 323 321 324 325 326 320 323 320 322 328 334 334 354 360 344 353 357 7 1 356 357 358 4 13 19 19
317 325 328 329 332 337 338 335 331 329 322 318 319 325 328 329 329 325 325 319 316 311 326 331 343 350 348 347 357 355 4 12 13 13 15 22 33 44
314 318 322 324 328 332 334 332 330 324 322 318 314 316 323 325 325 324 325 316 312 313 314 325 331 339 342 346 350 0 1 18 21 26 30 34 38 43
310 315 320 324 327 329 329 332 330 325 318 313 311 310 313 317 319 316 318 313 310 315 312 313 322 333 339 338 341 350 358 358 3 7 13 14 22 29
312 317 320 325 327 329 329 329 326 325 318 312 308 305 302 306 310 311 308 311 303 303 309 314 316 322 322 327 331 335 342 350 354 1 9 7 12 20
307 312 317 318 320 323 324 324 324 324 320 313 305 302 299 299 304 303 296 295 295 300 302 304 310 313 316 318 317 327 335 336 338 344 348 353 359 9
302 306 309 310 314 317 320 322 323 322 320 315 308 303 300 299 300 298 291 287 287 291 293 297 300 304 308 305 306 312 321 324 324 326 333 333 334 343
297 300 302 306 310 312 314 317 320 320 317 313 308 305 302 300 300 297 291 285 283 286 290 293 295 299 300 301 301 306 313 319 316 314 317 321 326 333
292 297 298 300 303 306 311 314 316 317 314 311 308 305 304 302 301 297 293 288 282 281 284 289 291 292 293 296 297 300 306 307 310 308 307 309 311 316
289 291 293 297 301 306 310 313 314 314 312 311 311 306 304 301 299 296 292 288 285 281 280 286 287 288 290 295 295 299 297 299 301 301 300 300 302 300
286 288 291 295 299 303 307 309 310 310 309 307 306 304 303 299 298 297 294 292 286 282 280 280 283 284 285 287 292 293 293 290 288 291 291 288 281 274
282 286 291 295 299 303 306 307 307 307 307 306 305 303 300 298 295 294 293 291 289 285 280 276 277 280 283 282 285 288 287 283 280 281 281 280 279 279
Wind_Speed_850mb
25 25 23 23 27 31 35 42 49 48 59 43 43 71 72 76 74 75 74 73 75 75 74 76 77 78 79 80 80 78 75 77 79 78 82 85 89 89
15 17 20 23 26 30 34 38 43 51 51 66 75 80 83 86 84 81 80 79 76 75 75 75 74 75 71 69 71 74 76 78 80 81 83 86 91 91
14 18 21 25 30 34 38 42 45 52 63 78 78 82 84 84 83 81 80 77 78 78 77 73 69 68 63 62 62 64 65 72 75 82 92 96 96 87
17 21 26 31 35 40 44 48 53 55 62 75 78 78 80 81 82 81 80 79 81 82 83 71 66 65 58 74 69 64 65 70 79 83 87 91 96 96
23 26 30 36 40 44 46 48 51 53 56 64 74 75 76 79 85 84 87 88 87 84 75 84 78 81 68 63 59 58 60 61 64 71 79 85 89 93
24 30 34 36 38 39 40 43 45 50 54 60 66 72 76 79 80 91 99 91 94 92 76 78 83 74 53 53 57 60 61 67 72 78 82 82 83 87
28 30 30 32 32 34 37 42 47 51 55 59 64 70 76 81 82 85 89 95 93 74 76 91 84 66 65 59 61 64 64 69 75 76 77 74 69 73
25 26 25 25 28 32 37 41 44 49 52 54 57 65 69 71 77 78 82 85 87 84 96 89 73 68 66 60 54 59 69 60 62 73 79 60 48 53
20 18 20 26 31 37 42 47 49 50 50 48 58 59 65 65 71 73 77 80 78 80 71 81 69 74 59 40 59 57 52 44 53 63 69 41 21 37
15 19 24 30 37 44 48 49 51 52 53 55 54 54 52 61 58 58 66 69 71 67 59 64 73 69 45 38 57 45 44 42 47 51 59 58 43 60
17 22 28 33 38 43 48 51 54 55 53 50 48 48 54 49 47 52 60 63 72 71 48 54 64 58 41 47 53 41 39 41 47 52 57 60 50 42
22 29 37 41 44 45 47 52 58 60 60 60 59 57 51 49 42 39 49 54 56 62 49 60 49 51 39 50 48 51 38 38 42 47 50 45 39 37
27 33 38 42 46 46 48 51 56 60 60 59 61 55 51 49 47 42 44 44 50 49 36 40 44 47 42 54 43 49 46 44 46 44 39 30 28 34
29 34 37 41 45 48 48 49 54 57 59 60 57 55 52 51 48 45 48 39 36 37 31 28 38 40 42 43 41 44 31 36 41 46 42 35 33 36
33 37 40 43 44 46 51 52 51 52 55 57 58 58 52 50 48 47 39 37 32 32 28 27 33 35 33 34 36 38 37 26 35 35 34 32 31 30
38 41 46 49 52 52 53 53 52 49 50 54 58 59 56 53 48 42 42 34 30 26 26 28 32 34 30 34 34 32 32 25 30 30 31 28 25 25
44 47 48 50 52 52 52 53 54 53 50 49 51 54 57 56 52 44 40 35 32 30 29 29 33 33 33 32 29 28 30 30 30 27 25 26 24 22
48 50 50 52 52 52 54 56 56 55 51 50 50 51 55 57 57 49 42 40 39 36 36 34 31 30 30 30 30 29 31 31 31 27 25 24 24 21
51 52 53 53 52 51 52 54 58 56 55 51 50 51 51 53 51 50 43 41 39 38 37 35 31 31 30 30 32 31 30 30 27 27 27 23 19 18
52 52 52 52 51 51 52 53 54 55 53 51 49 50 50 50 49 46 42 42 41 39 36 32 33 31 30 31 32 34 33 30 28 26 24 21 20 18
51 51 52 51 50 50 51 53 54 54 54 53 50 50 48 48 45 42 41 39 38 36 36 32 32 32 32 34 35 35 34 34 28 24 23 20 18 16
53 52 50 50 50 50 50 51 52 49 48 48 47 47 46 44 44 42 40 41 39 40 39 34 34 33 33 36 38 38 36 31 28 26 23 19 16 10
53 53 50 49 50 51 51 51 50 48 47 47 46 45 44 43 42 41 41 41 42 42 42 38 37 40 41 37 38 39 35 31 29 27 24 22 20 20
Wind_Direction_850mb
273 282 293 303 310 313 318 325 327 323 320 333 320 317 324 326 326 324 323 321 319 317 314 310 308 303 300 296 295 296 294 292 288 287 286 287 286 284
280 293 306 311 317 320 322 323 322 319 312 314 323 328 330 331 333 332 331 329 329 327 325 324 319 315 310 300 294 295 293 291 292 291 287 285 285 285
302 312 317 321 324 324 325 325 324 321 319 321 327 329 330 332 333 333 333 333 333 335 330 327 323 324 318 317 314 302 297 296 294 291 288 287 285 286
308 316 322 325 327 329 329 329 330 331 328 326 329 331 334 334 333 333 335 337 335 336 336 331 333 326 324 320 315 311 306 296 293 293 293 291 290 290
318 320 328 331 332 334 336 335 332 332 331 329 330 333 334 336 335 335 336 336 338 339 337 339 333 331 330 323 322 322 317 317 311 302 298 296 292 290
324 328 330 332 333 333 334 333 334 333 334 332 333 334 337 337 335 335 333 336 335 339 334 334 336 338 338 335 327 321 324 318 318 315 312 308 301 294
325 327 328 329 333 336 337 339 338 335 336 336 335 334 336 335 337 335 332 332 333 334 329 334 338 343 345 339 332 332 329 327 329 327 322 314 311 307
317 322 328 333 337 336 337 337 336 336 337 335 333 332 332 334 333 332 330 326 326 331 332 331 343 344 346 340 340 338 335 343 346 341 335 326 327 322
308 318 327 329 332 333 333 335 337 337 334 329 328 331 329 330 328 326 318 319 320 327 335 330 344 341 347 348 349 351 356 359 354 358 360 354 335 341
307 318 324 327 331 330 330 333 334 334 333 329 325 325 323 320 322 312 316 323 326 334 338 328 346 342 356 1 355 360 6 1 2 20 24 27 42 58
314 321 325 328 328 329 329 330 332 332 329 327 324 318 317 318 318 318 327 328 328 335 339 334 348 347 4 5 358 1 2 8 12 17 18 20 22 22
311 322 329 333 334 335 334 334 334 333 330 328 323 321 324 325 326 320 323 320 322 328 334 334 354 360 344 353 357 7 1 356 357 358 4 13 19 19
317 325 328 329 332 337 338 335 331 329 322 318 319 325 328 329 329 325 325 319 316 311 326 331 343 350 348 347 357 355 4 12 13 13 15 22 33 44
314 318 322 324 328 332 334 332 330 324 322 318 314 316 323 325 325 324 325 316 312 313 314 325 331 339 342 346 350 0 1 18 21 26 30 34 38 43
310 315 320 324 327 329 329 332 330 325 318 313 311 310 313 317 319 316 318 313 310 315 312 313 322 333 339 338 341 350 358 358 3 7 13 14 22 29
312 317 320 325 327 329 329 329 326 325 318 312 308 305 302 306 310 311 308 311 303 303 309 314 316 322 322 327 331 335 342 350 354 1 9 7 12 20
307 312 317 318 320 323 324 324 324 324 320 313 305 302 299 299 304 303 296 295 295 300 302 304 310 313 316 318 317 327 335 336 338 344 348 353 359 9
302 306 309 310 314 317 320 322 323 322 320 315 308 303 300 299 300 298 291 287 287 291 293 297 300 304 308 305 306 312 321 324 324 326 333 333 334 343
297 300 302 306 310 312 314 317 320 320 317 313 308 305 302 300 300 297 291 285 283 286 290 293 295 299 300 301 301 306 313 319 316 314 317 321 326 333
292 297 298 300 303 306 311 314 316 317 314 311 308 305 304 302 301 297 293 288 282 281 284 289 291 292 293 296 297 300 306 307 310 308 307 309 311 316
289 291 293 297 301 306 310 313 314 314 312 311 311 306 304 301 299 296 292 288 285 281 280 286 287 288 290 295 295 299 297 299 301 301 300 300 302 300
286 288 291 295 299 303 307 309 310 310 309 307 306 304 303 299 298 297 294 292 286 282 280 280 283 284 285 287 292 293 293 290 288 291 291 288 281 274
282 286 291 295 299 303 306 307 307 307 307 306 305 303 300 298 295 294 293 291 289 285 280 276 277 280 283 282 285 288 287 283 280 281 281 280 279 279